KUIPER-00223

Last updated on Sun Mar 15 2026 00:02:06 GMT+0000 (Coordinated Universal Time)

1 67783U 26030V 26073.60670993 .00041763 00000+0 12383-2 0 9999 2 67783 51.8848 195.7749 0013263 77.3163 282.9304 15.34341935 5844
UTC large
Height (km)
Speed (km/s)
/
Latitude / Longitude
Inclination (degrees)
Orbital Period (minutes)
Azimuth
Elevation
Range (km)
Doppler Factor

Next 0 passes for location: London (51.5072 / 0.1276)

Sorry there are no passes over London.